CZ-4 DEB, 26122

Orbit data source: Space-Track

CZ-4 DEB, 26122 is space debris in SSO originally from a launch on Thu, 14 Oct 1999 UTC launched from the Taiyaun Space Center, China (TSC). Debris objects in space refer to the collection of defunct objects orbiting the Earth. Examples of debris include non-operational satellites, rocket bodies, and fragments generated from explosions, collisions, or faulty payload assembly.

Loading next visibility...
Identifier
26122, 1999-057J
Orbit
SSO
Country
Flag of CNCN / PRC
Related business
Manufacturer
Unknown
Mission
Spacecraft
Bus & Motor
Unknown
Mass
Unknown
Launch date (UTC)
1999-10-14 (26 years ago)
Launch vehicle
Unknown
Launch site
Taiyaun Space Center, China (TSC)
Object type
Payload
Rocket body
Debris
Shape & HBR
Unknown shape, 0.2 m
Radar Cross Section
Small (<0.1 m²)

Expand to show TLE details & history
Last TLE update: 9 hours ago

TLE from 9 hours ago
0 CZ-4 DEB
1 26122U 99057J   26036.91669308  .00001702  00000-0  13458-2 0  9995
2 26122  98.9210 175.1146 0523346  30.8815  75.3901 13.42816820262366
Epoch: 2026-02-05T22:00Z
TLE epoch observation values (Epoch: 2026-02-05T22:00:02.282Z)
Latitude
66.27885°
Longitude
-90.13997°
Altitude
1,031.016 km
Speed
7.381 km/s
True Right ascension
01h 03m 43s
True Declination
66° 09' 24"
Sunlit
Object was in daylight at epoch
Visualization orbit readout
Latitude
Unknown
Longitude
Unknown
Altitude
Unknown
Speed
Unknown
Apparent Right ascension
Unknown
Apparent Declination
Unknown
Sunlit
N/A
Visualization observer readout
Local Sidereal Time
09:07:42
Azimuth
Unknown
Elevation
Unknown
Doppler factor
Unknown
Orbital elements
Apogee altitude
1,487.225 km
Perigee altitude
704.907 km
Semi-major axis
7,474.203 km
Eccentricity
0.05233
Inclination
98.921°
RAAN
175.1146°
Arg. of periapsis
30.8815°
True anomaly
81.28018°
Mean anomaly
75.3901°
Eccentric anomaly
78.32663°
Mean motion
3.35889 °/min
Orbital period
107.18 mins
BSTAR
0.0013458
Loading maneuver chart data...
Computing Atmospheric mass density...
Loading historical data...
Loading historical data...
Loading historical data...
Loading historical data...
Loading historical data...
Loading historical data...
Loading historical data...

Documentation

Showing up to 5 results
|